• In Deutschland
  • Länderverzeichnis
  • Für 7 Tage
  • Wassertemperatur
  • Satellitenkarten
  • Wetterkarte
  • Widgets
  • user-avatar
    Anmelden

    Stündliche Wetter Baranovitschi

    Heute, 17 August, Donnerstag

    Zeit Temperatur Niederschläge Wind Luftdruck Luftfeuchtigkeit
    00:00 +20°C° 0 mm 1 m/S 749 mmHg 82%
    01:00 +19°C° 0 mm 1 m/S 749 mmHg 83%
    02:00 +19°C° 0 mm 1 m/S 749 mmHg 85%
    03:00 +19°C° 0 mm 1 m/S 749 mmHg 86%
    04:00 +18°C° 0 mm 1 m/S 749 mmHg 88%
    05:00 +18°C° 0 mm 1 m/S 749 mmHg 89%
    06:00 +20°C° 0 mm 1 m/S 749 mmHg 84%
    07:00 +19°C° 0 mm 0 m/S 749 mmHg 79%
    08:00 +21°C° 0 mm 0 m/S 749 mmHg 74%
    09:00 +25°C° 0,1 mm 1 m/S 749 mmHg 68%
    10:00 +26°C° 0,1 mm 1 m/S 749 mmHg 62%
    11:00 +28°C° 0,1 mm 1 m/S 750 mmHg 56%
    12:00 +28°C° 0,1 mm 1 m/S 749 mmHg 54%
    13:00 +29°C° 0,1 mm 1 m/S 749 mmHg 52%
    14:00 +29°C° 0,1 mm 1 m/S 749 mmHg 50%
    15:00 +29°C° 0,1 mm 1 m/S 749 mmHg 52%
    16:00 +29°C° 0,1 mm 1 m/S 749 mmHg 54%
    17:00 +29°C° 0,1 mm 1 m/S 749 mmHg 55%
    18:00 +27°C° 0 mm 1 m/S 749 mmHg 61%
    19:00 +25°C° 0 mm 1 m/S 749 mmHg 67%
    20:00 +23°C° 0 mm 1 m/S 749 mmHg 73%
    21:00 +22°C° 0 mm 1 m/S 749 mmHg 76%
    22:00 +21°C° 0 mm 1 m/S 749 mmHg 78%
    23:00 +20°C° 0 mm 2 m/S 749 mmHg 80%

    Morgen, 18 August, Freitag

    Zeit Temperatur Niederschläge Wind Luftdruck Luftfeuchtigkeit
    00:00 +20°C° 0,1 mm 1 m/S 749 mmHg 83%
    01:00 +20°C° 0,1 mm 1 m/S 749 mmHg 86%
    02:00 +19°C° 0,1 mm 1 m/S 749 mmHg 89%
    03:00 +19°C° 0 mm 1 m/S 748 mmHg 89%
    04:00 +17°C° 0 mm 0 m/S 748 mmHg 90%
    05:00 +17°C° 0 mm 0 m/S 748 mmHg 90%
    06:00 +21°C° 0 mm 1 m/S 748 mmHg 85%
    07:00 +22°C° 0 mm 1 m/S 749 mmHg 80%
    08:00 +24°C° 0 mm 1 m/S 749 mmHg 76%
    09:00 +25°C° 0,3 mm 2 m/S 749 mmHg 71%
    10:00 +27°C° 0,3 mm 2 m/S 749 mmHg 66%
    11:00 +28°C° 0,3 mm 2 m/S 749 mmHg 61%
    12:00 +29°C° 0,2 mm 3 m/S 748 mmHg 58%
    13:00 +29°C° 0,2 mm 3 m/S 748 mmHg 54%
    14:00 +30°C° 0,2 mm 3 m/S 748 mmHg 51%
    15:00 +30°C° 0 mm 3 m/S 748 mmHg 53%
    16:00 +30°C° 0 mm 2 m/S 748 mmHg 54%
    17:00 +30°C° 0 mm 2 m/S 748 mmHg 56%
    18:00 +28°C° 0 mm 2 m/S 748 mmHg 60%
    19:00 +26°C° 0 mm 2 m/S 748 mmHg 63%
    20:00 +25°C° 0 mm 1 m/S 748 mmHg 67%
    21:00 +24°C° 0 mm 2 m/S 748 mmHg 67%
    22:00 +23°C° 0 mm 2 m/S 748 mmHg 66%
    23:00 +22°C° 0 mm 3 m/S 748 mmHg 66%

    übermorgen, 19 August, Samstag

    Zeit Temperatur Niederschläge Wind Luftdruck Luftfeuchtigkeit
    00:00 +21°C° 0 mm 3 m/S 748 mmHg 65%
    01:00 +21°C° 0 mm 3 m/S 748 mmHg 64%
    02:00 +20°C° 0 mm 3 m/S 748 mmHg 63%
    03:00 +20°C° 0 mm 3 m/S 748 mmHg 64%
    04:00 +19°C° 0 mm 3 m/S 747 mmHg 65%
    05:00 +19°C° 0 mm 3 m/S 747 mmHg 67%
    06:00 +20°C° 0 mm 3 m/S 747 mmHg 65%
    07:00 +21°C° 0 mm 3 m/S 747 mmHg 64%
    08:00 +23°C° 0 mm 4 m/S 748 mmHg 63%
    09:00 +26°C° 0 mm 4 m/S 748 mmHg 58%
    10:00 +28°C° 0 mm 5 m/S 748 mmHg 52%
    11:00 +29°C° 0 mm 5 m/S 748 mmHg 46%
    12:00 +30°C° 0 mm 5 m/S 747 mmHg 44%
    13:00 +32°C° 0 mm 5 m/S 747 mmHg 42%
    14:00 +33°C° 0 mm 5 m/S 747 mmHg 40%
    15:00 +32°C° 0 mm 5 m/S 746 mmHg 42%
    16:00 +32°C° 0 mm 4 m/S 746 mmHg 44%
    17:00 +31°C° 0 mm 3 m/S 745 mmHg 47%
    18:00 +29°C° 0 mm 3 m/S 745 mmHg 49%
    19:00 +27°C° 0 mm 3 m/S 745 mmHg 52%
    20:00 +25°C° 0 mm 3 m/S 745 mmHg 55%
    21:00 +24°C° 0 mm 3 m/S 746 mmHg 55%
    22:00 +24°C° 0 mm 3 m/S 746 mmHg 55%
    23:00 +22°C° 0 mm 3 m/S 746 mmHg 55%

    20 August, Sonntag

    Zeit Temperatur Niederschläge Wind Luftdruck Luftfeuchtigkeit
    00:00 +21°C° 0,1 mm 3 m/S 746 mmHg 61%
    01:00 +21°C° 0,1 mm 3 m/S 746 mmHg 67%
    02:00 +20°C° 0,1 mm 2 m/S 746 mmHg 72%
    03:00 +20°C° 0 mm 2 m/S 746 mmHg 75%
    04:00 +19°C° 0 mm 2 m/S 746 mmHg 78%
    05:00 +19°C° 0 mm 2 m/S 747 mmHg 80%
    06:00 +19°C° 0,1 mm 2 m/S 747 mmHg 81%
    07:00 +19°C° 0,1 mm 3 m/S 747 mmHg 82%
    08:00 +19°C° 0,1 mm 3 m/S 747 mmHg 84%
    09:00 +20°C° 0 mm 3 m/S 747 mmHg 82%
    10:00 +20°C° 0 mm 4 m/S 748 mmHg 80%
    11:00 +20°C° 0 mm 4 m/S 748 mmHg 78%
    12:00 +20°C° 0 mm 4 m/S 748 mmHg 77%
    13:00 +20°C° 0 mm 5 m/S 748 mmHg 77%
    14:00 +20°C° 0 mm 5 m/S 748 mmHg 76%
    15:00 +19°C° 0,1 mm 5 m/S 748 mmHg 77%
    16:00 +17°C° 0,1 mm 5 m/S 749 mmHg 79%
    17:00 +16°C° 0,1 mm 6 m/S 749 mmHg 80%
    18:00 +15°C° 0,1 mm 5 m/S 749 mmHg 81%
    19:00 +15°C° 0,1 mm 5 m/S 749 mmHg 81%
    20:00 +14°C° 0,1 mm 4 m/S 750 mmHg 81%
    21:00 +13°C° 0 mm 4 m/S 750 mmHg 81%
    22:00 +13°C° 0 mm 4 m/S 750 mmHg 82%
    23:00 +13°C° 0 mm 4 m/S 750 mmHg 82%

    21 August, Montag

    Zeit Temperatur Niederschläge Wind Luftdruck Luftfeuchtigkeit
    00:00 +13°C° 0,3 mm 3 m/S 750 mmHg 84%
    01:00 +12°C° 0,3 mm 3 m/S 751 mmHg 87%
    02:00 +13°C° 0,3 mm 2 m/S 751 mmHg 89%
    03:00 +13°C° 0,5 mm 2 m/S 751 mmHg 90%
    04:00 +13°C° 0,5 mm 2 m/S 751 mmHg 92%
    05:00 +13°C° 0,5 mm 2 m/S 751 mmHg 93%
    06:00 +14°C° 0 mm 2 m/S 751 mmHg 91%
    07:00 +14°C° 0 mm 2 m/S 751 mmHg 89%
    08:00 +15°C° 0 mm 2 m/S 751 mmHg 86%
    09:00 +17°C° 0 mm 2 m/S 751 mmHg 79%
    10:00 +19°C° 0 mm 1 m/S 751 mmHg 71%
    11:00 +21°C° 0 mm 1 m/S 751 mmHg 64%
    12:00 +22°C° 0 mm 1 m/S 751 mmHg 59%
    13:00 +23°C° 0 mm 1 m/S 751 mmHg 55%
    14:00 +24°C° 0 mm 1 m/S 750 mmHg 51%
    15:00 +24°C° 0 mm 1 m/S 750 mmHg 51%
    16:00 +23°C° 0 mm 1 m/S 750 mmHg 52%
    17:00 +23°C° 0 mm 1 m/S 749 mmHg 52%
    18:00 +21°C° 0 mm 1 m/S 749 mmHg 59%
    19:00 +19°C° 0 mm 1 m/S 749 mmHg 66%
    20:00 +15°C° 0 mm 0 m/S 749 mmHg 72%
    21:00 +16°C° 0 mm 1 m/S 749 mmHg 74%
    22:00 +16°C° 0 mm 1 m/S 749 mmHg 76%
    23:00 +15°C° 0 mm 1 m/S 749 mmHg 78%

    22 August, Dienstag

    Zeit Temperatur Niederschläge Wind Luftdruck Luftfeuchtigkeit
    00:00 +15°C° 0 mm 1 m/S 749 mmHg 79%
    01:00 +14°C° 0 mm 1 m/S 748 mmHg 81%
    02:00 +14°C° 0 mm 2 m/S 748 mmHg 83%
    03:00 +14°C° 0 mm 2 m/S 748 mmHg 83%
    04:00 +13°C° 0 mm 2 m/S 748 mmHg 84%
    05:00 +13°C° 0 mm 2 m/S 747 mmHg 84%
    06:00 +15°C° 0 mm 2 m/S 747 mmHg 80%
    07:00 +16°C° 0 mm 2 m/S 747 mmHg 76%
    08:00 +17°C° 0 mm 3 m/S 747 mmHg 72%
    09:00 +19°C° 0 mm 3 m/S 747 mmHg 67%
    10:00 +21°C° 0 mm 3 m/S 746 mmHg 61%
    11:00 +22°C° 0 mm 4 m/S 746 mmHg 55%
    12:00 +23°C° 0 mm 4 m/S 745 mmHg 53%
    13:00 +25°C° 0 mm 4 m/S 745 mmHg 50%
    14:00 +25°C° 0 mm 4 m/S 744 mmHg 48%
    15:00 +25°C° 0 mm 4 m/S 744 mmHg 50%
    16:00 +25°C° 0 mm 3 m/S 743 mmHg 52%
    17:00 +25°C° 0 mm 3 m/S 742 mmHg 54%
    18:00 +22°C° 0 mm 3 m/S 742 mmHg 59%
    19:00 +20°C° 0 mm 3 m/S 742 mmHg 65%
    20:00 +18°C° 0 mm 3 m/S 742 mmHg 70%
    21:00 +18°C° 0 mm 3 m/S 742 mmHg 72%
    22:00 +18°C° 0 mm 3 m/S 742 mmHg 74%
    23:00 +17°C° 0 mm 3 m/S 742 mmHg 76%
    Mehr zeigen